This demonstration page uses our WeatherBlox Daily Observations layout. Learn more.

Left ArrowRight Arrow

53.62937, 11.41316

Hourly Observations for December 31, 2018

Temp ( °F °C ) Dew Point ( °F °C ) Humidity (%) Winds ( mph kmh ) Pressure ( in mb ) Visibility ( mi km ) Precip ( " mm )
12:20 am 00:20 Mostly Cloudy 37 3 37 3 100 100 W 7 11 30.33 1027 6 9 N/A
1:20 am 01:20 Mostly Cloudy 37 3 37 3 100 100 W 6 9 30.36 1028 6 9 N/A
2:20 am 02:20 Mostly Cloudy 37 3 37 3 100 100 W 6 9 30.36 1028 6 9 N/A
3:20 am 03:20 Mostly Cloudy 37 3 37 3 100 100 W 5 7 30.36 1028 30 48 N/A
4:20 am 04:20 Mostly Cloudy 39 4 37 3 93 93 W 5 7 30.36 1028 30 48 N/A
5:20 am 05:20 Mostly Cloudy 39 4 37 3 93 93 W 6 9 30.36 1028 30 48 N/A
6:20 am 06:20 Mostly Cloudy 39 4 37 3 93 93 W 5 7 30.39 1029 30 48 N/A
7:20 am 07:20 Mostly Cloudy 39 4 39 4 100 100 W 6 9 30.39 1029 30 48 N/A
8:20 am 08:20 Mostly Cloudy with Fog 39 4 37 3 93 93 VRB 1 2 30.39 1029 30 48 N/A
9:20 am 09:20 Mostly Cloudy with Mist and Fog 39 4 39 4 100 100 WSW 5 7 30.39 1029 3 5 N/A
9:41 am 09:41 Mostly Cloudy with Mist and Fog 39 4 39 4 100 100 WSW 5 7 30.39 1029 2 3 N/A
10:09 am 10:09 Cloudy with Mist and Fog 41 5 39 4 93 93 WSW 5 7 30.39 1029 1 1 N/A
10:20 am 10:20 Mostly Cloudy with Mist and Fog 41 5 39 4 93 93 WSW 3 6 30.39 1029 1 1 N/A
10:29 am 10:29 Mostly Cloudy with Mist and Fog 41 5 39 4 93 93 WSW 5 7 30.39 1029 1 2 N/A
11:20 am 11:20 Mostly Cloudy with Mist and Fog 41 5 41 5 100 100 SW 6 9 30.39 1029 1 2 N/A
12:20 pm 12:20 Cloudy with Drizzle 43 6 41 5 93 93 SSW 5 7 30.39 1029 1 1 N/A
1:20 pm 13:20 Cloudy with Drizzle 43 6 43 6 100 100 SSW 6 9 30.36 1028 1 1 N/A
2:20 pm 14:20 Cloudy with Mist and Fog 43 6 43 6 100 100 SSW 6 9 30.33 1027 1 2 N/A
3:20 pm 15:20 Cloudy with Mist and Fog 45 7 43 6 93 93 WSW 7 11 30.33 1027 2 3 N/A
4:20 pm 16:20 Cloudy with Mist and Fog 45 7 43 6 93 93 WSW 8 13 30.33 1027 1 2 N/A
5:20 pm 17:20 Cloudy with Mist and Fog 45 7 45 7 100 100 WSW 7 11 30.33 1027 3 4 N/A
5:48 pm 17:48 Cloudy with Mist and Fog 45 7 45 7 100 100 WSW 7 11 30.33 1027 3 5 N/A
6:01 pm 18:01 Cloudy 45 7 45 7 100 100 WSW 7 11 30.30 1026 4 6 N/A
6:20 pm 18:20 Cloudy 46 8 45 7 93 93 WSW 8 13 30.30 1026 4 6 N/A
6:30 pm 18:30 Cloudy 46 8 45 7 93 93 WSW 9 15 30.30 1026 5 8 N/A
7:20 pm 19:20 Cloudy 46 8 45 7 93 93 WSW 9 15 30.30 1026 6 9 N/A
8:20 pm 20:20 Mostly Cloudy 46 8 45 7 93 93 W 14 22 30.30 1026 5 8 N/A
9:20 pm 21:20 Mostly Cloudy with Drizzle 46 8 43 6 87 87 W 16 26 30.27 1025 5 8 N/A
10:20 pm 22:20 Mostly Cloudy with Drizzle 46 8 43 6 87 87 W 13 20 30.24 1024 5 8 N/A
11:20 pm 23:20 Mostly Cloudy with Drizzle 46 8 43 6 87 87 W 21 33 30.21 1023 3 5 N/A
11:42 pm 23:42 Mostly Cloudy with Drizzle 46 8 43 6 87 87 W 17 28 30.21 1023 5 8 N/A

Powered by AerisWeather